Погода Ксевкияна 2 недели

Аура, Мальта

18 - 30 июля
  • 18июля
    Сегодня
    +27°
    +31°
    Ясно и безоблачно
    ВремяПогодаТемператураВлажностьДавлениеВетер, м/сВероятность осадков
    02:00Ясно и безоблачно+28°C85 %756 мм1.5 м/с1 %
    05:00Ясно и безоблачно+27°C85 %756 мм1.3 м/с1 %
    08:00Ясно и безоблачно+28°C88 %757 мм1.8 м/с1 %
    11:00Ясно и безоблачно+28°C88 %757 мм0.4 м/с1 %
    14:00Ясно и безоблачно+30°C80 %757 мм2.4 м/с1 %
    17:00Ясно и безоблачно+30°C70 %757 мм2.9 м/с1 %
    20:00Ясно и безоблачно+30°C72 %757 мм3.2 м/с1 %
    23:00Ясно и безоблачно+29°C76 %757 мм2.4 м/с1 %
  • 19июля
    Пятница
    +26°
    +31°
    Ясно и безоблачно
    ВремяПогодаТемператураВлажностьДавлениеВетер, м/сВероятность осадков
    02:00Ясно и безоблачно+28°C81 %756 мм2.7 м/с2 %
    05:00Ясно и безоблачно+27°C85 %756 мм4.1 м/с2 %
    08:00Ясно и безоблачно+28°C90 %756 мм2.9 м/с2 %
    11:00Ясно и безоблачно+29°C86 %757 мм1.8 м/с2 %
    14:00Ясно и безоблачно+29°C77 %756 мм1.4 м/с2 %
    17:00Ясно и безоблачно+31°C74 %755 мм3.9 м/с2 %
    20:00Ясно и безоблачно+30°C77 %755 мм3.4 м/с2 %
    23:00Ясно и безоблачно+28°C82 %755 мм2.6 м/с2 %
  • 20июля
    Суббота
    +25°
    +31°
    Ясно и безоблачно
    ВремяПогодаТемператураВлажностьДавлениеВетер, м/сВероятность осадков
    02:00Ясно и безоблачно+28°C84 %754 мм4.4 м/с2 %
    05:00Ясно и безоблачно+26°C90 %753 мм4.7 м/с2 %
    08:00Ясно и безоблачно+28°C93 %753 мм3.0 м/с2 %
    11:00Ясно и безоблачно+29°C91 %754 мм0.9 м/с2 %
    14:00Ясно и безоблачно+29°C88 %753 мм1.5 м/с2 %
    17:00Ясно и безоблачно+29°C85 %753 мм3.7 м/с2 %
    20:00Ясно и безоблачно+29°C76 %753 мм3.2 м/с2 %
    23:00Ясно и безоблачно+28°C78 %753 мм0.7 м/с2 %
  • 21июля
    Воскресенье
    +25°
    +30°
    Ясно и безоблачно
    ВремяПогодаТемператураВлажностьДавлениеВетер, м/сВероятность осадков
    02:00Ясно и безоблачно+27°C85 %753 мм1.6 м/с2 %
    05:00Ясно и безоблачно+27°C87 %752 мм1.5 м/с2 %
    08:00Ясно и безоблачно+29°C87 %753 мм2.0 м/с2 %
    11:00Ясно и безоблачно+29°C88 %754 мм2.2 м/с2 %
    14:00Ясно и безоблачно+30°C86 %754 мм2.4 м/с2 %
    17:00Ясно и безоблачно+29°C75 %753 мм5.5 м/с2 %
    20:00Ясно и безоблачно+29°C78 %753 мм2.3 м/с2 %
    23:00Ясно и безоблачно+28°C75 %754 мм2.6 м/с2 %
Мы используем cookies
Соглашаюсь